When you browse on this site, cookies collect data to enhance your experience and personalize the content and advertising you see.
Visit our Privacy Policy to learn more. By continuing to use the site, you agree to this use of cookies and data.
  • In Hungary
  • List of Countries
  • For 7 days
  • Water Temperature
  • Satellite Maps
  • Weather Map
  • News
  • Weather Widgets
  • user-avatar
    Login

    Hourly Weather Andrianovka

    Today, 18 November, Sunday

    Time Temperature Precipitation Wind Pressure Humidity
    00:00 -4°C° 0 mm 2 mps 763 mmHg 26%
    01:00 -4°C° 0 mm 2 mps 762 mmHg 26%
    02:00 -5°C° 0 mm 3 mps 762 mmHg 26%
    03:00 -5°C° 0 mm 3 mps 761 mmHg 26%
    04:00 -5°C° 0 mm 3 mps 761 mmHg 26%
    05:00 -5°C° 0 mm 3 mps 760 mmHg 26%
    06:00 -5°C° 0 mm 3 mps 760 mmHg 26%
    07:00 -5°C° 0 mm 3 mps 760 mmHg 25%
    08:00 -5°C° 0 mm 3 mps 759 mmHg 25%
    09:00 -4°C° 0 mm 3 mps 759 mmHg 24%
    10:00 -2°C° 0 mm 3 mps 759 mmHg 23%
    11:00 -1°C° 0 mm 3 mps 759 mmHg 22%
    12:00 0°C° 0 mm 3 mps 759 mmHg 20%
    13:00 0°C° 0 mm 3 mps 759 mmHg 23%
    14:00 +1°C° 0 mm 2 mps 759 mmHg 25%
    15:00 +1°C° 0 mm 2 mps 758 mmHg 27%
    16:00 -1°C° 0 mm 2 mps 759 mmHg 29%
    17:00 -2°C° 0 mm 2 mps 759 mmHg 30%
    18:00 -3°C° 0 mm 2 mps 759 mmHg 32%
    19:00 -3°C° 0 mm 2 mps 759 mmHg 33%
    20:00 -3°C° 0 mm 2 mps 759 mmHg 34%
    21:00 -3°C° 0 mm 2 mps 759 mmHg 35%
    22:00 -3°C° 0 mm 2 mps 759 mmHg 36%
    23:00 -1°C° 0 mm 1 mps 759 mmHg 36%

    Tomorrow, 19 November, Monday

    Time Temperature Precipitation Wind Pressure Humidity
    00:00 -2°C° 0 mm 1 mps 759 mmHg 37%
    01:00 -2°C° 0 mm 1 mps 760 mmHg 38%
    02:00 -2°C° 0 mm 1 mps 760 mmHg 38%
    03:00 -2°C° 0 mm 1 mps 760 mmHg 39%
    04:00 -2°C° 0 mm 1 mps 760 mmHg 39%
    05:00 -3°C° 0 mm 0 mps 760 mmHg 40%
    06:00 -4°C° 0 mm 0 mps 760 mmHg 40%
    07:00 -3°C° 0 mm 0 mps 761 mmHg 39%
    08:00 -3°C° 0 mm 0 mps 761 mmHg 38%
    09:00 -3°C° 0 mm 0 mps 761 mmHg 37%
    10:00 -2°C° 0 mm 0 mps 761 mmHg 35%
    11:00 -1°C° 0 mm 0 mps 762 mmHg 32%
    12:00 0°C° 0 mm 0 mps 762 mmHg 30%
    13:00 0°C° 0 mm 0 mps 762 mmHg 31%
    14:00 +1°C° 0 mm 1 mps 762 mmHg 32%
    15:00 +1°C° 0 mm 1 mps 762 mmHg 33%
    16:00 +1°C° 0 mm 1 mps 762 mmHg 35%
    17:00 0°C° 0 mm 1 mps 762 mmHg 37%
    18:00 -3°C° 0 mm 2 mps 762 mmHg 39%
    19:00 -3°C° 0 mm 2 mps 762 mmHg 40%
    20:00 -3°C° 0 mm 2 mps 762 mmHg 41%
    21:00 -3°C° 0 mm 2 mps 762 mmHg 42%
    22:00 -3°C° 0 mm 2 mps 762 mmHg 45%
    23:00 -4°C° 0 mm 2 mps 762 mmHg 47%

    Day after tomorrow, 20 November, Tuesday

    Time Temperature Precipitation Wind Pressure Humidity
    00:00 -4°C° 0 mm 2 mps 762 mmHg 49%
    01:00 -4°C° 0 mm 2 mps 762 mmHg 53%
    02:00 -4°C° 0 mm 2 mps 762 mmHg 58%
    03:00 -4°C° 0 mm 2 mps 762 mmHg 62%
    04:00 -4°C° 0 mm 2 mps 762 mmHg 68%
    05:00 -4°C° 0 mm 2 mps 761 mmHg 74%
    06:00 -4°C° 0 mm 2 mps 761 mmHg 81%
    07:00 -4°C° 0 mm 2 mps 761 mmHg 84%
    08:00 -4°C° 0 mm 2 mps 761 mmHg 87%
    09:00 -5°C° 0 mm 3 mps 761 mmHg 90%
    10:00 -4°C° 0 mm 3 mps 761 mmHg 86%
    11:00 -2°C° 0 mm 3 mps 761 mmHg 82%
    12:00 0°C° 0 mm 3 mps 761 mmHg 78%
    13:00 0°C° 0 mm 3 mps 761 mmHg 78%
    14:00 0°C° 0 mm 3 mps 760 mmHg 79%
    15:00 0°C° 0 mm 3 mps 760 mmHg 79%
    16:00 -1°C° 0 mm 3 mps 760 mmHg 82%
    17:00 -2°C° 0 mm 3 mps 760 mmHg 85%
    18:00 -2°C° 0 mm 3 mps 760 mmHg 88%
    19:00 -2°C° 0 mm 2 mps 760 mmHg 86%
    20:00 -2°C° 0 mm 2 mps 760 mmHg 85%
    21:00 -2°C° 0 mm 2 mps 760 mmHg 84%
    22:00 -2°C° 0 mm 2 mps 760 mmHg 84%
    23:00 0°C° 0 mm 1 mps 760 mmHg 83%

    21 November, Wednesday

    Time Temperature Precipitation Wind Pressure Humidity
    00:00 0°C° 0 mm 1 mps 759 mmHg 83%
    01:00 0°C° 0 mm 1 mps 759 mmHg 82%
    02:00 0°C° 0 mm 1 mps 759 mmHg 82%
    03:00 0°C° 0 mm 1 mps 759 mmHg 82%
    04:00 0°C° 0 mm 1 mps 759 mmHg 82%
    05:00 -1°C° 0 mm 1 mps 759 mmHg 82%
    06:00 -1°C° 0 mm 1 mps 758 mmHg 83%
    07:00 -2°C° 0 mm 2 mps 758 mmHg 81%
    08:00 -2°C° 0 mm 2 mps 758 mmHg 79%
    09:00 -2°C° 0 mm 2 mps 758 mmHg 77%
    10:00 -2°C° 0 mm 3 mps 758 mmHg 73%
    11:00 -2°C° 0 mm 3 mps 758 mmHg 70%
    12:00 -2°C° 0 mm 4 mps 758 mmHg 66%
    13:00 -2°C° 0 mm 4 mps 757 mmHg 66%
    14:00 -2°C° 0 mm 4 mps 757 mmHg 66%
    15:00 -2°C° 0 mm 4 mps 757 mmHg 66%
    16:00 -3°C° 0 mm 4 mps 757 mmHg 67%
    17:00 -2°C° 0 mm 3 mps 757 mmHg 69%
    18:00 -2°C° 0 mm 3 mps 757 mmHg 71%
    19:00 -4°C° 0 mm 3 mps 757 mmHg 71%
    20:00 -4°C° 0 mm 3 mps 757 mmHg 72%
    21:00 -4°C° 0 mm 4 mps 757 mmHg 73%
    22:00 -4°C° 0 mm 3 mps 757 mmHg 73%
    23:00 -4°C° 0 mm 3 mps 757 mmHg 73%

    22 November, Thursday

    Time Temperature Precipitation Wind Pressure Humidity
    00:00 -4°C° 0 mm 3 mps 757 mmHg 73%
    01:00 -4°C° 0 mm 3 mps 756 mmHg 72%
    02:00 -4°C° 0 mm 3 mps 756 mmHg 72%
    03:00 -4°C° 0 mm 3 mps 756 mmHg 71%
    04:00 -4°C° 0 mm 3 mps 756 mmHg 70%
    05:00 -4°C° 0 mm 3 mps 756 mmHg 69%
    06:00 -4°C° 0 mm 3 mps 756 mmHg 68%
    07:00 -4°C° 0 mm 3 mps 756 mmHg 68%
    08:00 -4°C° 0 mm 3 mps 756 mmHg 69%
    09:00 -4°C° 0 mm 4 mps 756 mmHg 70%
    10:00 -3°C° 0 mm 4 mps 756 mmHg 65%
    11:00 -3°C° 0 mm 4 mps 755 mmHg 60%
    12:00 -2°C° 0 mm 5 mps 755 mmHg 56%
    13:00 -2°C° 0 mm 5 mps 754 mmHg 56%
    14:00 -2°C° 0 mm 5 mps 754 mmHg 56%
    15:00 -3°C° 0 mm 6 mps 753 mmHg 56%
    16:00 -4°C° 0 mm 6 mps 753 mmHg 60%
    17:00 -4°C° 0 mm 6 mps 753 mmHg 63%
    18:00 -5°C° 0 mm 6 mps 753 mmHg 66%
    19:00 -5°C° 0 mm 6 mps 753 mmHg 68%
    20:00 -5°C° 0 mm 6 mps 753 mmHg 70%
    21:00 -4°C° 0 mm 6 mps 753 mmHg 72%
    22:00 -4°C° 0 mm 6 mps 753 mmHg 73%
    23:00 -4°C° 0 mm 6 mps 753 mmHg 75%

    23 November, Friday

    Time Temperature Precipitation Wind Pressure Humidity
    00:00 -4°C° 0 mm 6 mps 753 mmHg 77%
    01:00 -4°C° 0 mm 6 mps 754 mmHg 78%
    02:00 -4°C° 0 mm 6 mps 754 mmHg 78%
    03:00 -4°C° 0 mm 6 mps 754 mmHg 79%
    04:00 -5°C° 0 mm 5 mps 755 mmHg 75%
    05:00 -5°C° 0 mm 5 mps 755 mmHg 71%
    06:00 -5°C° 0 mm 4 mps 756 mmHg 67%
    07:00 -5°C° 0 mm 4 mps 757 mmHg 64%
    08:00 -5°C° 0 mm 4 mps 757 mmHg 61%
    09:00 -5°C° 0 mm 3 mps 758 mmHg 58%
    10:00 -4°C° 0 mm 3 mps 758 mmHg 56%
    11:00 -3°C° 0 mm 4 mps 758 mmHg 55%
    12:00 -2°C° 0 mm 4 mps 758 mmHg 53%
    13:00 -2°C° 0 mm 4 mps 758 mmHg 57%
    14:00 -2°C° 0 mm 4 mps 759 mmHg 62%
    15:00 -2°C° 0 mm 4 mps 759 mmHg 66%
    16:00 -3°C° 0 mm 4 mps 759 mmHg 70%
    17:00 -3°C° 0 mm 4 mps 759 mmHg 74%
    18:00 -3°C° 0 mm 4 mps 759 mmHg 78%
    19:00 -4°C° 0 mm 4 mps 759 mmHg 80%
    20:00 -4°C° 0 mm 3 mps 759 mmHg 82%
    21:00 -4°C° 0 mm 3 mps 759 mmHg 84%
    22:00 -4°C° 0 mm 3 mps 759 mmHg 82%
    23:00 -4°C° 0 mm 3 mps 759 mmHg 81%
    Show more